Regional Weather Roundup
Issued by NWS Binghamton, NY

Home | Current Version | Previous Version | Text Only | Print | Product List | Glossary On
Versions: 1 2 3 4 5 6 7 8 9 10 11 12 13 14 15 16 17 18 19 20 21 22 23 24 25 26 27
000
ASUS41 KBGM 250010
RWRBGM

REGIONAL WEATHER ROUNDUP
NATIONAL WEATHER SERVICE BINGHAMTON NY
700 PM EST SAT FEB 24 2018

Note: "fair" indicates few or no clouds below 12,000 feet with no
significant weather and/or obstructions to visibility.

* = Station(s) that does not report precipitation, such as rain,
snow, etc, also no thunder or fog.

NYZ009-015>018-022>025-036-037-044>046-055>057-062-250100
...Central New York...

CITY           SKY/WX    TMP DP  RH WIND       PRES   REMARKS
Binghamton     CLOUDY    35  31  85 CALM      30.15R
Cortland       MOCLDY    32  32 100 CALM      30.18R
Dansville      CLOUDY    40  31  70 S5        30.18R
Elmira         CLOUDY    39  33  79 N3        30.18R
Seneca Falls   CLOUDY    37  28  70 CALM      30.21S
Ithaca         FAIR      35  31  85 CALM      30.18R
Hornell        CLOUDY    37  32  81 SE3       30.20R
Monticello     MOCLDY    36  36 100 S6        30.14S FOG     WCI  31
Penn Yan       CLOUDY    37  29  72 CALM      30.18R
Rome           FAIR      33  28  81 CALM      30.21R
Sidney         CLOUDY    36  32  87 CALM      30.18R
Syracuse       FAIR      34  29  82 CALM      30.21R
$$

PAZ038>040-043-044-047-048-072-250100
...Northeast Pennsylvania...

CITY           SKY/WX    TMP DP  RH WIND       PRES   REMARKS
Hazleton       DRIZZLE   41  39  93 SE6       30.15F
Scranton       LGT RAIN  41  40  96 N8        30.16R FOG
$$
&&
KEY
WCI = Wind Chill Index
VSB = Visibility
HX  = Heat Index
$$




USA.gov is the U.S. government's official web portal to all federal, state and local government web resources and services.